Location: Rosenheim
(47.8408°N, 12.2113°E)
Time: 08:44:31
(UTC+02:00)

ISS - Visible Passes

Search period start: 24 September 2017 00:00
Search period end: 04 October 2017 00:00
Orbit: 401 x 407 km, 51.6° (Epoch: 24 September)

Date Brightness Start Highest point End Pass type
(mag) Time Alt. Az. Time Alt. Az. Time Alt. Az.
25 Sep -1.2 21:19:01 10° SW 21:19:31 13° SW 21:19:31 13° SW visible
26 Sep -2.9 20:27:04 10° SSW 20:29:53 30° SSE 20:29:53 30° SSE visible
27 Sep -2.2 19:35:27 10° S 19:37:49 19° SE 19:40:04 11° E visible
27 Sep -2.5 21:10:40 10° WSW 21:12:44 36° WSW 21:12:44 36° WSW visible
28 Sep -3.8 20:18:23 10° SW 20:21:37 59° SSE 20:22:45 35° E visible
28 Sep -0.6 21:55:00 10° W 21:55:24 13° W 21:55:24 13° W visible
29 Sep -3.1 19:26:18 10° SSW 19:29:20 36° SE 19:32:23 10° ENE visible
29 Sep -3.0 21:02:29 10° W 21:05:17 51° NW 21:05:17 51° NW visible
30 Sep -3.8 20:10:01 10° WSW 20:13:18 78° NNW 20:15:03 25° ENE visible
30 Sep -0.7 21:46:54 10° WNW 21:47:42 16° WNW 21:47:42 16° WNW visible
01 Oct -3.8 19:17:39 10° WSW 19:20:55 70° SSE 19:24:11 10° ENE visible
01 Oct -2.9 20:54:22 10° W 20:57:23 43° NNW 20:57:23 43° NNW visible
02 Oct -3.2 20:01:49 10° W 20:05:01 52° NNW 20:07:01 21° ENE visible
02 Oct -0.8 21:38:42 10° WNW 21:39:39 17° WNW 21:39:39 17° WNW visible
03 Oct -2.8 20:46:11 10° WNW 20:49:14 40° N 20:49:14 40° N visible
